contact:dominique.lefevre@mio.osupytheas.fr, maurice.libes@osupytheas.fr, didier.mallarino@osupytheas.fr
Project:EMSO http://www.emso-fr.org/EMSO-France
Depth: 2436.0 m
Title:EMSO Ligure Ouest : Data MII capteur AQUADOPP
Date,Latitude,Longitude,X_East,Y_North,Z_Up,Amplitude_X,Amplitude_Y,Amplitude_Z,Batterie,SoundSpeed,Heading,Pitch,Roll,Pressure,TIS,Speed,Direction
, degrees North, degrees East, m.s-1, m.s-1,m.s-1, 1, 1, 1, Volt, m.s-1, degree, degree, degree, dbar, degree_C, m.s-1, degree
2023-09-23T00:04:03,42.805,6.029,0.008,-0.016,-0.026,102.0,101.0,101.0,13.4,1505.2,334.2,-0.8,1.8,2471.573,13.28,0.017,153.4
2023-09-23T00:07:03,42.805,6.029,-0.014,-0.011,-0.065,102.0,102.0,100.0,13.4,1505.2,356.8,-0.7,1.8,2471.57,13.29,0.017,231.8
2023-09-23T00:10:03,42.805,6.029,-0.003,0.022,-0.015,101.0,104.0,100.0,13.3,1505.2,336.9,-0.8,1.8,2471.578,13.29,0.022,352.2
2023-09-23T00:13:03,42.805,6.029,-0.005,0.01,-0.021,101.0,103.0,101.0,13.4,1505.2,336.2,-0.7,1.8,2471.557,13.29,0.011,333.4
2023-09-23T00:16:03,42.805,6.029,0.001,0.007,-0.022,103.0,102.0,100.0,13.4,1505.2,341.0,-0.7,1.8,2471.545,13.29,0.007,8.1
2023-09-23T00:19:03,42.805,6.029,-0.036,0.029,0.004,100.0,101.0,102.0,13.4,1505.2,340.6,-0.8,1.8,2471.592,13.29,0.046,308.9
2023-09-23T00:22:03,42.805,6.029,-0.02,0.007,-0.049,102.0,102.0,101.0,13.4,1505.2,353.7,-0.7,1.8,2471.554,13.29,0.021,289.3
2023-09-23T00:25:03,42.805,6.029,-0.031,0.018,-0.007,104.0,101.0,101.0,13.4,1505.2,327.3,-0.8,1.8,2471.544,13.29,0.035,300.1
2023-09-23T00:28:03,42.805,6.029,-0.006,0.019,0.025,102.0,102.0,101.0,13.4,1505.2,355.8,-0.8,1.8,2471.55,13.29,0.019,342.5
2023-09-23T00:31:03,42.805,6.029,-0.021,0.01,-0.044,103.0,100.0,101.0,13.4,1505.2,336.8,-0.7,1.8,2471.517,13.29,0.023,295.5
2023-09-23T00:34:03,42.805,6.029,-0.026,0.007,0.001,101.0,104.0,101.0,13.4,1505.2,342.7,-0.8,1.8,2471.52,13.29,0.026,285.1
2023-09-23T00:37:03,42.805,6.029,-0.007,0.008,-0.004,104.0,101.0,101.0,13.3,1505.2,335.1,-0.8,1.8,2471.511,13.29,0.01,318.8
2023-09-23T00:40:03,42.805,6.029,0.0,0.017,0.003,101.0,103.0,102.0,13.3,1505.2,356.0,-0.8,1.8,2471.552,13.29,0.017,0.0
2023-09-23T00:43:03,42.805,6.029,0.005,0.001,-0.014,102.0,101.0,101.0,13.3,1505.2,339.0,-0.7,1.8,2471.52,13.29,0.005,78.7
2023-09-23T00:46:03,42.805,6.029,-0.006,-0.028,-0.061,102.0,103.0,100.0,13.3,1505.2,353.0,-0.8,1.8,2471.516,13.29,0.028,192.1
2023-09-23T00:49:03,42.805,6.029,-0.01,0.019,-0.007,102.0,101.0,101.0,13.3,1505.2,330.6,-0.7,1.8,2471.512,13.29,0.021,332.2
2023-09-23T00:52:03,42.805,6.029,-0.016,0.025,0.0,102.0,101.0,100.0,13.3,1505.2,348.2,-0.8,1.8,2471.534,13.29,0.029,327.4
2023-09-23T00:55:03,42.805,6.029,-0.022,0.017,-0.018,102.0,102.0,101.0,13.4,1505.2,339.7,-0.8,1.8,2471.505,13.29,0.027,307.7
2023-09-23T00:58:03,42.805,6.029,-0.022,0.009,-0.049,101.0,103.0,101.0,13.4,1505.2,354.8,-0.8,1.8,2471.532,13.29,0.023,292.2
2023-09-23T01:04:03,42.805,6.029,0.0,0.008,-0.015,103.0,102.0,102.0,13.3,1505.2,338.0,-0.8,1.8,2471.556,13.29,0.008,0.0
2023-09-23T01:07:03,42.805,6.029,-0.008,0.006,0.003,101.0,101.0,101.0,13.4,1505.2,334.2,-0.8,1.8,2471.538,13.29,0.01,306.9
2023-09-23T01:10:03,42.805,6.029,0.017,0.003,-0.006,101.0,102.0,101.0,13.3,1505.2,346.2,-0.8,1.8,2471.499,13.29,0.017,80.0
2023-09-23T01:13:03,42.805,6.029,-0.019,0.013,-0.011,103.0,104.0,102.0,13.4,1505.2,349.7,-0.8,1.8,2471.572,13.29,0.023,304.4
2023-09-23T01:16:03,42.805,6.029,0.004,-0.012,-0.018,101.0,101.0,102.0,13.3,1505.2,341.5,-0.8,1.8,2471.556,13.29,0.012,161.6
2023-09-23T01:19:03,42.805,6.029,-0.016,0.025,0.01,102.0,100.0,101.0,13.4,1505.2,348.6,-0.7,1.8,2471.493,13.29,0.029,327.4
2023-09-23T01:22:02,42.805,6.029,-0.023,0.021,0.008,101.0,102.0,101.0,13.3,1505.2,335.6,-0.7,1.8,2471.545,13.29,0.031,312.4
2023-09-23T01:25:03,42.805,6.029,0.011,-0.005,-0.034,102.0,102.0,101.0,13.4,1505.2,342.7,-0.7,1.8,2471.488,13.29,0.012,114.4
2023-09-23T01:28:03,42.805,6.029,-0.014,0.023,-0.012,102.0,102.0,101.0,13.3,1505.2,352.3,-0.8,1.8,2471.545,13.29,0.026,328.7
2023-09-23T01:31:03,42.805,6.029,-0.038,0.006,-0.02,101.0,102.0,102.0,13.3,1505.2,329.1,-0.8,1.8,2471.551,13.29,0.038,279.0
2023-09-23T01:34:03,42.805,6.029,-0.026,0.018,-0.026,102.0,100.0,101.0,13.3,1505.2,343.7,-0.8,1.8,2471.504,13.29,0.031,304.7
2023-09-23T01:37:03,42.805,6.029,0.002,-0.03,-0.055,102.0,101.0,101.0,13.4,1505.2,355.6,-0.8,1.8,2471.469,13.29,0.03,176.2
2023-09-23T01:40:03,42.805,6.029,-0.014,0.008,-0.029,101.0,102.0,101.0,13.4,1505.2,329.1,-0.7,1.8,2471.523,13.29,0.016,299.7
2023-09-23T01:43:03,42.805,6.029,-0.003,-0.001,-0.018,102.0,102.0,100.0,13.4,1505.2,329.0,-0.8,1.8,2471.517,13.29,0.003,251.6
2023-09-23T01:46:03,42.805,6.029,-0.006,0.0,-0.022,102.0,100.0,101.0,13.3,1505.2,348.9,-0.8,1.8,2471.504,13.29,0.006,270.0
2023-09-23T01:49:03,42.805,6.029,-0.022,0.021,-0.036,103.0,103.0,100.0,13.3,1505.2,348.2,-0.7,1.8,2471.483,13.29,0.03,313.7
2023-09-23T01:52:03,42.805,6.029,-0.019,0.008,-0.033,100.0,102.0,100.0,13.3,1505.2,345.9,-0.8,1.8,2471.519,13.29,0.02,292.8
2023-09-23T01:55:03,42.805,6.029,-0.011,-0.006,-0.055,102.0,102.0,101.0,13.4,1505.2,329.6,-0.8,1.8,2471.488,13.29,0.012,241.4
2023-09-23T01:58:03,42.805,6.029,-0.031,0.025,-0.041,102.0,104.0,101.0,13.4,1505.2,345.4,-0.8,1.8,2471.501,13.29,0.039,308.9
2023-09-23T02:04:03,42.805,6.029,-0.017,0.003,-0.042,102.0,102.0,101.0,13.4,1505.2,354.4,-0.7,1.8,2471.533,13.29,0.017,280.0
2023-09-23T02:07:03,42.805,6.029,-0.03,-0.015,-0.045,101.0,102.0,101.0,13.4,1505.2,328.7,-0.8,1.8,2471.525,13.29,0.033,243.4
2023-09-23T02:10:03,42.805,6.029,-0.005,0.007,-0.012,100.0,102.0,102.0,13.4,1505.2,346.7,-0.8,1.8,2471.537,13.29,0.008,324.5
2023-09-23T02:13:03,42.805,6.029,0.009,-0.012,-0.025,102.0,103.0,101.0,13.3,1505.2,344.7,-0.8,1.8,2471.508,13.29,0.015,143.1
2023-09-23T02:16:03,42.805,6.029,-0.006,0.008,-0.036,101.0,103.0,101.0,13.3,1505.2,352.6,-0.8,1.8,2471.535,13.29,0.01,323.1
2023-09-23T02:19:03,42.805,6.029,-0.029,-0.002,-0.043,102.0,101.0,101.0,13.4,1505.2,330.1,-0.8,1.8,2471.521,13.29,0.029,266.1
2023-09-23T02:22:03,42.805,6.029,-0.013,-0.009,-0.039,102.0,102.0,100.0,13.4,1505.2,337.5,-0.8,1.8,2471.56,13.29,0.015,235.3
2023-09-23T02:25:03,42.805,6.029,-0.02,0.006,-0.027,102.0,102.0,101.0,13.4,1505.2,347.3,-0.8,1.8,2471.521,13.29,0.02,286.7
2023-09-23T02:28:03,42.805,6.029,-0.015,0.002,-0.024,102.0,101.0,101.0,13.3,1505.2,326.3,-0.8,1.8,2471.487,13.29,0.015,277.6
2023-09-23T02:31:03,42.805,6.029,-0.011,-0.003,-0.021,102.0,102.0,101.0,13.3,1505.2,344.7,-0.8,1.8,2471.494,13.29,0.011,254.7
2023-09-23T02:34:03,42.805,6.029,-0.012,0.004,0.015,102.0,103.0,101.0,13.3,1505.2,327.9,-0.7,1.8,2471.528,13.29,0.012,288.4
2023-09-23T02:37:03,42.805,6.029,-0.024,0.003,-0.055,102.0,101.0,101.0,13.4,1505.2,340.9,-0.8,1.8,2471.482,13.29,0.024,277.1
2023-09-23T02:40:03,42.805,6.029,-0.046,0.018,-0.037,100.0,104.0,102.0,13.4,1505.2,344.0,-0.8,1.8,2471.507,13.29,0.049,291.4
2023-09-23T02:43:03,42.805,6.029,-0.02,0.052,0.026,103.0,103.0,100.0,13.4,1505.2,336.5,-0.8,1.8,2471.52,13.29,0.055,339.0
2023-09-23T02:46:03,42.805,6.029,-0.012,-0.006,-0.04,102.0,102.0,101.0,13.4,1505.2,327.5,-0.8,1.8,2471.5,13.29,0.013,243.4
2023-09-23T02:49:03,42.805,6.029,-0.009,0.009,0.023,101.0,102.0,102.0,13.4,1505.2,339.3,-0.8,1.8,2471.468,13.29,0.012,315.0
2023-09-23T02:52:03,42.805,6.029,0.004,0.019,0.015,102.0,102.0,101.0,13.4,1505.2,332.5,-0.8,1.8,2471.462,13.29,0.019,11.9
2023-09-23T02:55:03,42.805,6.029,-0.029,-0.013,-0.076,103.0,103.0,100.0,13.3,1505.2,335.2,-0.8,1.8,2471.489,13.29,0.031,245.9
2023-09-23T02:58:03,42.805,6.029,-0.022,-0.007,-0.036,102.0,102.0,101.0,13.4,1505.2,334.2,-0.8,1.8,2471.482,13.29,0.023,252.4
2023-09-23T04:04:02,42.805,6.029,-0.005,0.006,-0.051,102.0,102.0,101.0,13.4,1505.2,355.7,-0.7,1.8,2472.03,13.28,0.007,320.2
2023-09-23T04:07:03,42.805,6.029,-0.036,0.005,-0.072,102.0,102.0,101.0,13.4,1505.2,345.7,-0.8,1.8,2471.911,13.28,0.036,277.9
2023-09-23T04:10:03,42.805,6.029,-0.021,0.008,-0.024,102.0,102.0,101.0,13.4,1505.2,335.1,-0.8,1.8,2471.806,13.28,0.022,290.9
2023-09-23T04:13:03,42.805,6.029,-0.008,-0.013,-0.018,102.0,101.0,101.0,13.4,1505.2,336.5,-0.8,1.8,2471.732,13.28,0.015,211.6
2023-09-23T04:16:03,42.805,6.029,-0.023,0.0,-0.026,102.0,103.0,101.0,13.4,1505.2,336.2,-0.7,1.8,2471.7,13.29,0.023,270.0
2023-09-23T04:19:03,42.805,6.029,-0.024,-0.011,-0.017,103.0,100.0,106.0,13.4,1505.2,329.6,-0.7,1.8,2471.586,13.29,0.026,245.4
2023-09-23T04:22:03,42.805,6.029,-0.032,0.007,-0.025,103.0,101.0,101.0,13.3,1505.2,340.0,-0.8,1.8,2471.625,13.29,0.032,282.3
2023-09-23T04:25:03,42.805,6.029,-0.015,0.0,-0.058,103.0,102.0,100.0,13.4,1505.2,333.9,-0.8,1.8,2471.534,13.29,0.015,270.0
2023-09-23T04:28:03,42.805,6.029,-0.023,0.019,-0.035,101.0,103.0,101.0,13.4,1505.2,351.0,-0.8,1.8,2471.548,13.29,0.029,309.6
2023-09-23T04:31:03,42.805,6.029,-0.022,-0.016,-0.038,103.0,101.0,101.0,13.4,1505.2,329.6,-0.7,1.8,2471.514,13.29,0.027,234.0
2023-09-23T04:34:03,42.805,6.029,-0.011,0.004,-0.01,102.0,102.0,101.0,13.3,1505.2,340.0,-0.7,1.8,2471.497,13.29,0.011,290.0
2023-09-23T04:37:03,42.805,6.029,-0.01,0.021,-0.022,103.0,101.0,101.0,13.4,1505.2,343.7,-0.7,1.8,2471.47,13.29,0.023,334.5
2023-09-23T04:40:03,42.805,6.029,-0.002,-0.011,-0.024,102.0,103.0,101.0,13.4,1505.2,329.4,-0.8,1.8,2471.44,13.29,0.011,190.3
2023-09-23T04:43:03,42.805,6.029,-0.02,-0.009,-0.062,102.0,102.0,102.0,13.3,1505.2,329.3,-0.7,1.8,2471.518,13.29,0.021,245.8
2023-09-23T04:46:03,42.805,6.029,-0.039,0.022,-0.007,103.0,102.0,101.0,13.3,1505.2,342.1,-0.8,1.8,2471.435,13.29,0.044,299.4
2023-09-23T04:49:03,42.805,6.029,-0.01,0.018,-0.011,102.0,101.0,101.0,13.4,1505.2,354.6,-0.7,1.8,2471.447,13.29,0.02,330.9
2023-09-23T04:52:03,42.805,6.029,-0.02,0.032,-0.017,101.0,104.0,101.0,13.3,1505.2,344.7,-0.8,1.8,2471.465,13.29,0.037,328.0
2023-09-23T04:55:03,42.805,6.029,-0.001,0.003,-0.029,103.0,102.0,101.0,13.4,1505.2,334.6,-0.8,1.9,2471.478,13.29,0.003,341.6
2023-09-23T04:58:03,42.805,6.029,-0.022,0.017,-0.012,101.0,101.0,101.0,13.3,1505.2,333.4,-0.7,1.8,2471.476,13.29,0.027,307.7
2023-09-23T05:04:03,42.805,6.029,-0.016,-0.012,-0.042,102.0,101.0,102.0,13.3,1505.2,341.2,-0.7,1.8,2471.55,13.29,0.02,233.1
2023-09-23T05:07:03,42.805,6.029,-0.01,0.016,-0.001,102.0,103.0,101.0,13.4,1505.2,340.8,-0.7,1.8,2471.467,13.29,0.018,328.0
2023-09-23T05:10:03,42.805,6.029,-0.013,-0.011,-0.053,101.0,102.0,101.0,13.3,1505.2,349.5,-0.7,1.8,2471.467,13.29,0.017,229.8
2023-09-23T05:13:03,42.805,6.029,-0.02,-0.001,-0.038,103.0,103.0,101.0,13.4,1505.2,344.7,-0.8,1.8,2471.456,13.29,0.02,267.1
2023-09-23T05:16:03,42.805,6.029,-0.004,-0.003,-0.024,102.0,102.0,101.0,13.3,1505.2,353.2,-0.8,1.8,2471.476,13.29,0.005,233.1
2023-09-23T05:19:03,42.805,6.029,-0.015,-0.005,0.002,103.0,102.0,100.0,13.3,1505.2,340.8,-0.8,1.8,2471.466,13.29,0.015,251.6
2023-09-23T05:22:03,42.805,6.029,-0.01,0.012,0.008,103.0,102.0,101.0,13.4,1505.2,343.7,-0.8,1.8,2471.483,13.29,0.015,320.2
2023-09-23T05:25:03,42.805,6.029,-0.003,0.012,-0.007,104.0,101.0,101.0,13.4,1505.2,346.6,-0.8,1.8,2471.447,13.29,0.012,346.0
2023-09-23T05:28:03,42.805,6.029,-0.014,-0.013,-0.026,103.0,101.0,101.0,13.4,1505.2,333.4,-0.8,1.8,2471.458,13.29,0.019,227.1
2023-09-23T05:31:03,42.805,6.029,-0.003,0.008,-0.017,102.0,102.0,100.0,13.4,1505.2,334.8,-0.8,1.8,2471.475,13.29,0.008,339.4
2023-09-23T05:34:03,42.805,6.029,-0.014,0.0,-0.008,103.0,102.0,102.0,13.4,1505.2,334.6,-0.8,1.8,2471.455,13.29,0.014,270.0
2023-09-23T05:37:03,42.805,6.029,-0.013,-0.004,-0.037,103.0,101.0,101.0,13.4,1505.2,351.2,-0.8,1.8,2471.462,13.29,0.013,252.9
2023-09-23T05:40:03,42.805,6.029,0.01,0.003,-0.034,103.0,102.0,101.0,13.4,1505.2,335.3,-0.7,1.8,2471.455,13.29,0.01,73.3
2023-09-23T05:43:03,42.805,6.029,0.0,-0.003,-0.015,104.0,102.0,101.0,13.4,1505.2,344.6,-0.8,1.8,2471.427,13.29,0.003,180.0
2023-09-23T05:46:03,42.805,6.029,-0.019,0.021,-0.011,102.0,103.0,101.0,13.4,1505.2,353.5,-0.8,1.8,2471.425,13.29,0.028,317.9
2023-09-23T05:49:03,42.805,6.029,-0.029,-0.003,-0.024,104.0,100.0,102.0,13.4,1505.2,344.3,-0.7,1.8,2471.407,13.29,0.029,264.1
2023-09-23T05:52:03,42.805,6.029,-0.033,0.02,-0.022,103.0,101.0,103.0,13.4,1505.2,340.1,-0.8,1.8,2471.445,13.29,0.038,301.2
2023-09-23T05:55:03,42.805,6.029,-0.008,-0.015,-0.021,102.0,102.0,101.0,13.4,1505.2,346.5,-0.7,1.8,2471.419,13.29,0.017,208.1
2023-09-23T05:58:03,42.805,6.029,-0.011,0.013,-0.011,102.0,102.0,101.0,13.4,1505.2,349.5,-0.7,1.8,2471.469,13.29,0.017,319.8
2023-09-23T06:04:03,42.805,6.029,0.004,-0.018,-0.045,103.0,102.0,102.0,13.3,1505.2,346.9,-0.8,1.8,2471.479,13.29,0.018,167.5
2023-09-23T06:07:03,42.805,6.029,-0.015,0.016,-0.038,104.0,103.0,101.0,13.3,1505.2,354.0,-0.8,1.8,2471.478,13.29,0.021,316.9
2023-09-23T06:10:03,42.805,6.029,-0.021,-0.016,-0.045,102.0,103.0,101.0,13.3,1505.2,330.3,-0.8,1.8,2471.465,13.29,0.026,232.7
2023-09-23T06:13:03,42.805,6.029,-0.002,0.02,-0.031,103.0,102.0,101.0,13.3,1505.2,342.5,-0.8,1.8,2471.456,13.29,0.02,354.3
2023-09-23T06:16:03,42.805,6.029,-0.03,0.029,-0.011,102.0,102.0,101.0,13.4,1505.2,341.0,-0.8,1.8,2471.485,13.29,0.041,314.0
2023-09-23T06:19:03,42.805,6.029,0.002,-0.006,-0.044,103.0,101.0,103.0,13.4,1505.2,347.8,-0.8,1.8,2471.47,13.29,0.006,161.6
2023-09-23T06:22:03,42.805,6.029,0.003,-0.004,-0.038,102.0,102.0,101.0,13.4,1505.2,337.5,-0.8,1.8,2471.436,13.29,0.005,143.1
2023-09-23T06:25:03,42.805,6.029,-0.021,-0.016,-0.029,102.0,104.0,102.0,13.3,1505.2,347.5,-0.8,1.8,2471.437,13.29,0.026,232.7
2023-09-23T06:28:03,42.805,6.029,-0.011,-0.001,-0.004,103.0,102.0,102.0,13.4,1505.2,331.7,-0.8,1.8,2471.455,13.29,0.011,264.8
2023-09-23T06:31:03,42.805,6.029,-0.03,-0.002,-0.032,102.0,102.0,101.0,13.3,1505.2,345.4,-0.7,1.8,2471.432,13.29,0.03,266.2
2023-09-23T06:34:03,42.805,6.029,-0.016,0.026,-0.029,103.0,102.0,101.0,13.4,1505.2,336.4,-0.8,1.8,2471.411,13.29,0.03,328.4
2023-09-23T06:37:03,42.805,6.029,-0.016,0.013,-0.024,103.0,103.0,101.0,13.4,1505.2,332.6,-0.8,1.8,2471.41,13.29,0.02,309.1
2023-09-23T06:40:03,42.805,6.029,-0.027,0.003,-0.041,102.0,103.0,102.0,13.4,1505.2,335.3,-0.8,1.8,2471.412,13.29,0.027,276.3
2023-09-23T06:43:03,42.805,6.029,-0.017,0.003,-0.018,103.0,104.0,101.0,13.4,1505.2,338.4,-0.8,1.8,2471.469,13.29,0.017,280.0
2023-09-23T06:46:03,42.805,6.029,0.018,0.007,-0.023,102.0,104.0,101.0,13.4,1505.2,352.8,-0.8,1.8,2471.437,13.29,0.019,68.8
2023-09-23T06:49:03,42.805,6.029,0.001,-0.003,-0.013,101.0,103.0,103.0,13.3,1505.2,344.8,-0.7,1.8,2471.419,13.29,0.003,161.6
2023-09-23T06:52:03,42.805,6.029,-0.002,0.0,-0.006,103.0,101.0,101.0,13.4,1505.2,346.4,-0.8,1.8,2471.39,13.29,0.002,270.0
2023-09-23T06:55:03,42.805,6.029,-0.039,0.018,-0.04,102.0,103.0,101.0,13.4,1505.2,354.5,-0.7,1.8,2471.452,13.29,0.042,294.8
2023-09-23T06:58:03,42.805,6.029,-0.006,-0.003,-0.045,104.0,102.0,102.0,13.3,1505.2,328.7,-0.8,1.8,2471.416,13.29,0.006,243.4
2023-09-23T07:04:03,42.805,6.029,-0.018,-0.003,-0.032,102.0,103.0,102.0,13.4,1505.2,353.4,-0.8,1.8,2471.492,13.29,0.018,260.5
2023-09-23T07:07:03,42.805,6.029,0.002,0.002,-0.047,102.0,102.0,102.0,13.4,1505.2,350.8,-0.8,1.8,2471.452,13.29,0.002,45.0
2023-09-23T07:10:03,42.805,6.029,-0.007,0.008,-0.023,104.0,100.0,102.0,13.4,1505.2,326.3,-0.8,1.8,2471.473,13.29,0.01,318.8
2023-09-23T07:13:03,42.805,6.029,0.001,-0.004,0.014,102.0,101.0,102.0,13.4,1505.2,342.8,-0.7,1.8,2471.417,13.29,0.004,166.0
2023-09-23T07:16:03,42.805,6.029,-0.004,0.011,-0.002,102.0,103.0,101.0,13.3,1505.2,345.4,-0.7,1.8,2471.461,13.29,0.011,340.0
2023-09-23T07:19:03,42.805,6.029,0.005,0.003,-0.025,103.0,102.0,101.0,13.4,1505.2,344.3,-0.7,1.8,2471.429,13.29,0.005,59.0
2023-09-23T07:22:03,42.805,6.029,-0.019,-0.001,-0.021,104.0,102.0,102.0,13.4,1505.2,333.4,-0.8,1.8,2471.461,13.29,0.019,267.0
2023-09-23T07:25:03,42.805,6.029,-0.019,0.003,-0.031,103.0,103.0,102.0,13.4,1505.2,336.4,-0.8,1.8,2471.486,13.29,0.019,279.0
2023-09-23T07:28:03,42.805,6.029,-0.005,-0.014,-0.037,104.0,102.0,102.0,13.4,1505.2,336.1,-0.8,1.8,2471.404,13.29,0.014,199.6
2023-09-23T07:31:03,42.805,6.029,0.001,0.0,-0.003,102.0,103.0,101.0,13.4,1505.2,349.3,-0.7,1.8,2471.426,13.29,0.001,90.0
2023-09-23T07:34:03,42.805,6.029,-0.005,-0.025,-0.019,103.0,102.0,102.0,13.4,1505.2,351.1,-0.8,1.8,2471.436,13.29,0.025,191.3
2023-09-23T07:37:03,42.805,6.029,-0.032,-0.006,-0.026,103.0,103.0,102.0,13.3,1505.2,343.4,-0.8,1.8,2471.441,13.29,0.032,259.4
2023-09-23T07:40:03,42.805,6.029,-0.026,0.011,-0.009,102.0,103.0,102.0,13.4,1505.2,336.4,-0.8,1.8,2471.457,13.29,0.028,292.9
2023-09-23T07:43:03,42.805,6.029,-0.017,0.01,-0.017,103.0,102.0,101.0,13.4,1505.2,325.0,-0.8,1.8,2471.456,13.29,0.019,300.5
2023-09-23T07:46:03,42.805,6.029,-0.003,0.0,-0.004,103.0,102.0,101.0,13.3,1505.2,328.8,-0.8,1.8,2471.449,13.29,0.003,270.0
2023-09-23T07:49:03,42.805,6.029,-0.015,-0.006,-0.03,104.0,103.0,102.0,13.4,1505.2,337.3,-0.8,1.8,2471.501,13.29,0.016,248.2
2023-09-23T07:52:03,42.805,6.029,-0.012,0.006,-0.005,103.0,102.0,101.0,13.3,1505.2,334.4,-0.8,1.8,2471.436,13.29,0.013,296.6
2023-09-23T07:55:03,42.805,6.029,0.003,-0.009,0.008,103.0,102.0,101.0,13.4,1505.2,336.2,-0.8,1.8,2471.467,13.29,0.009,161.6
2023-09-23T07:58:03,42.805,6.029,-0.003,-0.035,-0.041,103.0,103.0,102.0,13.3,1505.2,353.4,-0.8,1.8,2471.463,13.29,0.035,184.9
2023-09-23T08:04:03,42.805,6.029,0.006,-0.013,-0.005,102.0,103.0,101.0,13.4,1505.2,348.2,-0.8,1.9,2471.473,13.29,0.014,155.2
2023-09-23T08:07:03,42.805,6.029,-0.026,0.017,-0.044,103.0,103.0,101.0,13.3,1505.2,336.8,-0.8,1.8,2471.495,13.29,0.031,303.2
2023-09-23T08:10:03,42.805,6.029,-0.012,0.01,-0.043,102.0,103.0,102.0,13.4,1505.2,354.0,-0.7,1.8,2471.508,13.29,0.015,309.8
2023-09-23T08:13:03,42.805,6.029,-0.016,0.016,0.004,102.0,103.0,101.0,13.3,1505.2,332.2,-0.8,1.9,2471.462,13.29,0.022,315.0
2023-09-23T08:16:03,42.805,6.029,0.0,-0.024,-0.032,103.0,102.0,102.0,13.3,1505.2,331.8,-0.7,1.8,2471.458,13.29,0.024,180.0
2023-09-23T08:19:03,42.805,6.029,-0.005,-0.003,-0.042,103.0,103.0,101.0,13.4,1505.2,328.2,-0.8,1.8,2471.437,13.29,0.005,239.0
2023-09-23T08:22:03,42.805,6.029,-0.013,0.004,-0.01,103.0,102.0,101.0,13.4,1505.2,341.5,-0.8,1.8,2471.449,13.29,0.013,287.1
2023-09-23T08:25:03,42.805,6.029,-0.007,0.003,-0.028,103.0,103.0,102.0,13.4,1505.2,350.7,-0.7,1.8,2471.461,13.29,0.007,293.2
2023-09-23T08:28:03,42.805,6.029,0.005,-0.003,-0.004,103.0,102.0,102.0,13.3,1505.2,328.7,-0.7,1.8,2471.497,13.29,0.005,121.0
2023-09-23T08:31:03,42.805,6.029,0.0,0.008,-0.035,103.0,104.0,102.0,13.4,1505.2,328.7,-0.7,1.8,2471.463,13.29,0.008,0.0
2023-09-23T08:34:03,42.805,6.029,-0.008,-0.004,-0.026,104.0,103.0,102.0,13.3,1505.2,338.9,-0.8,1.8,2471.466,13.29,0.008,243.4
2023-09-23T08:37:03,42.805,6.029,-0.015,-0.001,-0.056,103.0,103.0,101.0,13.4,1505.2,350.7,-0.8,1.8,2471.443,13.29,0.015,266.2
2023-09-23T08:40:03,42.805,6.029,-0.008,0.015,0.0,106.0,102.0,102.0,13.4,1505.2,331.2,-0.8,1.9,2471.471,13.29,0.017,331.9
2023-09-23T08:43:03,42.805,6.029,0.006,-0.005,-0.004,103.0,103.0,102.0,13.4,1505.2,334.8,-0.8,1.8,2471.462,13.29,0.007,129.8
2023-09-23T08:46:03,42.805,6.029,-0.008,0.0,-0.025,102.0,104.0,102.0,13.3,1505.2,345.9,-0.8,1.8,2471.491,13.29,0.008,270.0
2023-09-23T08:49:03,42.805,6.029,-0.006,0.001,-0.001,102.0,103.0,103.0,13.4,1505.2,327.8,-0.8,1.8,2471.472,13.29,0.006,279.5
2023-09-23T08:52:03,42.805,6.029,-0.014,0.013,-0.022,103.0,103.0,102.0,13.4,1505.2,342.6,-0.8,1.8,2471.452,13.29,0.019,312.9
2023-09-23T08:55:03,42.805,6.029,0.002,-0.013,0.014,102.0,103.0,102.0,13.4,1505.2,354.1,-0.8,1.8,2471.486,13.29,0.013,171.3
2023-09-23T08:58:03,42.805,6.029,-0.004,-0.026,0.003,103.0,103.0,102.0,13.4,1505.2,334.4,-0.8,1.8,2471.46,13.29,0.026,188.7
2023-09-23T09:04:03,42.805,6.029,-0.022,0.002,-0.032,103.0,103.0,102.0,13.4,1505.2,333.8,-0.8,1.8,2471.512,13.29,0.022,275.2
2023-09-23T09:07:03,42.805,6.029,-0.006,-0.014,-0.034,103.0,103.0,102.0,13.4,1505.2,355.0,-0.8,1.8,2471.525,13.29,0.015,203.2
2023-09-23T09:10:03,42.805,6.029,-0.007,0.001,-0.022,104.0,103.0,101.0,13.4,1505.2,327.9,-0.8,1.9,2471.485,13.29,0.007,278.1
2023-09-23T09:13:03,42.805,6.029,0.004,-0.013,-0.041,103.0,103.0,101.0,13.4,1505.2,335.3,-0.8,1.8,2471.494,13.29,0.013,162.9
2023-09-23T09:16:03,42.805,6.029,-0.003,-0.003,-0.016,102.0,103.0,103.0,13.4,1505.2,339.4,-0.8,1.8,2471.488,13.29,0.004,225.0
2023-09-23T09:19:03,42.805,6.029,-0.01,0.016,-0.046,103.0,103.0,102.0,13.4,1505.2,348.6,-0.7,1.8,2471.475,13.29,0.018,328.0
2023-09-23T09:22:03,42.805,6.029,-0.03,0.012,0.002,103.0,102.0,102.0,13.4,1505.2,329.4,-0.8,1.8,2471.445,13.29,0.032,291.8
2023-09-23T09:25:03,42.805,6.029,0.008,-0.028,-0.03,103.0,103.0,102.0,13.3,1505.2,348.6,-0.7,1.8,2471.461,13.29,0.029,164.1
2023-09-23T09:28:03,42.805,6.029,0.013,-0.013,-0.024,103.0,103.0,101.0,13.4,1505.2,335.5,-0.8,1.8,2471.494,13.29,0.018,135.0
2023-09-23T09:31:03,42.805,6.029,-0.02,-0.001,-0.048,103.0,103.0,101.0,13.4,1505.2,334.2,-0.8,1.8,2471.463,13.29,0.02,267.1
2023-09-23T09:34:03,42.805,6.029,-0.015,-0.004,-0.043,103.0,103.0,101.0,13.4,1505.2,338.4,-0.8,1.8,2471.429,13.29,0.015,255.1
2023-09-23T09:37:03,42.805,6.029,-0.02,-0.019,-0.033,103.0,102.0,102.0,13.4,1505.2,341.0,-0.8,1.8,2471.486,13.29,0.027,226.5
2023-09-23T09:40:03,42.805,6.029,-0.015,0.002,-0.006,102.0,102.0,101.0,13.3,1505.2,330.6,-0.8,1.8,2471.476,13.29,0.015,277.6
2023-09-23T09:43:03,42.805,6.029,-0.007,-0.011,-0.045,102.0,103.0,101.0,13.4,1505.2,343.3,-0.8,1.8,2471.478,13.29,0.013,212.5
2023-09-23T09:46:03,42.805,6.029,0.004,-0.024,-0.043,102.0,102.0,102.0,13.4,1505.2,339.4,-0.8,1.8,2471.496,13.29,0.024,170.5
2023-09-23T09:49:03,42.805,6.029,-0.007,0.004,-0.032,105.0,103.0,101.0,13.4,1505.2,348.2,-0.8,1.8,2471.515,13.29,0.008,299.7
2023-09-23T09:52:03,42.805,6.029,-0.003,0.007,0.013,102.0,102.0,102.0,13.4,1505.2,331.0,-0.8,1.8,2471.492,13.29,0.007,336.8
2023-09-23T09:55:03,42.805,6.029,-0.014,0.012,0.01,103.0,102.0,102.0,13.4,1505.2,337.1,-0.7,1.8,2471.525,13.29,0.018,310.6
2023-09-23T09:58:03,42.805,6.029,-0.018,0.013,-0.037,103.0,102.0,101.0,13.4,1505.2,349.6,-0.8,1.8,2471.512,13.29,0.022,305.8
2023-09-23T10:04:03,42.805,6.029,-0.004,0.0,-0.004,103.0,102.0,101.0,13.4,1505.2,330.4,-0.8,1.8,2471.551,13.29,0.004,270.0
2023-09-23T10:07:03,42.805,6.029,0.006,-0.028,-0.055,102.0,102.0,102.0,13.4,1505.2,347.0,-0.8,1.8,2471.513,13.29,0.028,167.9
2023-09-23T10:10:03,42.805,6.029,-0.024,-0.007,-0.041,103.0,102.0,101.0,13.4,1505.2,350.2,-0.8,1.9,2471.515,13.29,0.025,253.7
2023-09-23T10:13:03,42.805,6.029,-0.004,-0.025,-0.039,103.0,102.0,102.0,13.4,1505.2,334.8,-0.7,1.8,2471.51,13.29,0.025,189.1
2023-09-23T10:16:03,42.805,6.029,-0.013,-0.001,-0.017,102.0,103.0,101.0,13.4,1505.2,346.4,-0.8,1.8,2471.519,13.29,0.013,265.6
2023-09-23T10:19:03,42.805,6.029,-0.012,-0.005,-0.019,103.0,102.0,101.0,13.4,1505.2,342.2,-0.8,1.8,2471.511,13.29,0.013,247.4
2023-09-23T10:22:03,42.805,6.029,0.006,-0.017,-0.041,101.0,103.0,103.0,13.4,1505.2,331.6,-0.8,1.8,2471.522,13.29,0.018,160.6
2023-09-23T10:25:03,42.805,6.029,-0.017,-0.008,-0.042,103.0,102.0,102.0,13.4,1505.2,333.4,-0.8,1.8,2471.535,13.29,0.018,244.8
2023-09-23T10:28:03,42.805,6.029,-0.014,-0.012,-0.016,103.0,104.0,101.0,13.4,1505.2,354.4,-0.8,1.8,2471.499,13.29,0.018,229.4
2023-09-23T10:31:03,42.805,6.029,-0.005,-0.007,-0.036,103.0,102.0,101.0,13.4,1505.2,332.4,-0.8,1.8,2471.53,13.29,0.008,215.5
2023-09-23T10:34:03,42.805,6.029,-0.015,-0.033,-0.047,103.0,103.0,101.0,13.4,1505.2,348.8,-0.8,1.8,2471.482,13.29,0.036,204.4
2023-09-23T10:37:03,42.805,6.029,-0.025,0.004,-0.045,103.0,102.0,101.0,13.4,1505.2,355.6,-0.8,1.9,2471.536,13.29,0.025,279.1
2023-09-23T10:40:03,42.805,6.029,0.003,0.006,-0.007,101.0,102.0,101.0,13.4,1505.2,333.4,-0.8,1.8,2471.528,13.29,0.006,26.6
2023-09-23T10:43:03,42.805,6.029,0.014,-0.002,-0.006,104.0,102.0,102.0,13.4,1505.2,336.8,-0.8,1.8,2471.537,13.29,0.014,98.1
2023-09-23T10:46:03,42.805,6.029,0.0,0.002,-0.046,103.0,101.0,102.0,13.3,1505.2,348.2,-0.8,1.8,2471.508,13.29,0.002,0.0
2023-09-23T10:49:03,42.805,6.029,-0.01,-0.021,-0.004,101.0,104.0,101.0,13.3,1505.2,351.8,-0.8,1.8,2471.528,13.29,0.023,205.5
2023-09-23T10:52:03,42.805,6.029,-0.007,0.004,-0.015,102.0,103.0,101.0,13.3,1505.2,354.8,-0.7,1.8,2471.533,13.29,0.008,299.7